Zurück zum Katalog

LILIUM-2

AktivAmateurfunkSSO
NORAD 66679·PAYLOAD·🇹🇼 Taiwan

Gestartet Nov 28, 2025 von Vandenberg Space Force Base

Loading…

Nächste Überflüge (nächste 24 Stunden)

TLE

AktuellSource: Space-Track

Epoche: Sep 14, 2026, 03:41 UTC

1 66679U 25276P   26257.15382984  .00002332  00000-0  11675-3 0  9991
2 66679  97.4077 328.3989 0007392  64.3858 295.8139 15.18350302 43896

Verfolge LILIUM-2 in Echtzeit mit AllMySat

Download on the App Store